Tracking 35331 objects as of 16-Sep-2026
HD Live streaming from Space Station
objects crossing your sky now

IRIDIUM 54


IRIDIUM 54 is no longer on orbit
IRIDIUM 54 is classified as:


NORAD ID: 25171
Int'l Code: 1998-010C
Launch date: February 18, 1998
Source: United States (US)
Launch site: AIR FORCE WESTERN TEST RANGE (AFWTR)
Decay date: 2019-05-11
Your satellite tracking list
Your tracking list is empty




NASA's NSSDC Master Catalog

Two Line Element Set (TLE):
1 25171U 98010C   19131.18278122  .35416330 -14313-5  24459-3 0  9990
2 25171  86.3932  58.4175 0039747  82.6482 278.3050 16.50076881111638
Source of the keplerian elements: AFSPC